Weather History for Piney Island, NC

Change the Weather History Date:

Wednesday, February 8, 2012

  Actual Average (KMRH) Record (KMRH)
Temperature  
Mean Temperature 52 °F -  
Max Temperature 57 °F 54 °F 70 °F (1990)
Min Temperature 46 °F 32 °F 15 °F (1977)
Degree Days  
Heating Degree Days 14    
Growing Degree Days 2 (Base 50)    
Moisture  
Dew Point 43 °F    
Average Humidity 76    
Maximum Humidity 87    
Minimum Humidity 64    
Precipitation  
Precipitation 0.02 in - - ()
Sea Level Pressure  
Sea Level Pressure 30.11 in    
Wind  
Wind Speed 10 mph (North)    
Max Wind Speed 15 mph    
Max Gust Speed 22 mph    
Visibility 10 miles    
Events      
Averages and records for this station are not official NWS values.
T = Trace of Precipitation, MM = Missing Value Source: NWS Daily Summary

Daily Weather History Graph

Daily Weather History Graph

Search for Another Location

Airport:

Trip Planner

Search our weather history database for the weather conditions in past years. The results will help you decide how hot, cold, wet, or windy it might be!

Date:

Astronomy

Feb. 08, 2012 Rise Set
Actual Time 6:59 AM EST 5:41 PM EST
Civil Twilight 6:33 AM EST 6:07 PM EST
Nautical Twilight 6:03 AM EST 6:37 PM EST
Astronomical Twilight 5:33 AM EST 7:07 PM EST
Moon 6:52 PM EST (2/8) 7:05 AM EST (2/8)
Length of Visible Light 11h 34m
Length of Day
10h 41m
Full, 99% of the Moon is Illuminated
Feb 8
Full
Feb 14
Last Quarter
Feb 21
New
Feb 29
First Quarter
Mar 8
Full

Hourly Weather History & Observations

Time (EST) Temp. Windchill Dew Point Humidity Pressure Visibility Wind Dir Wind Speed Gust Speed Precip Events Conditions
12:56 AM 50.0 °F - 39.0 °F 66% 30.17 in 10.0 mi NE 9.2 mph - N/A   Clear
1:56 AM 50.0 °F - 39.9 °F 68% 30.18 in 10.0 mi NNE 6.9 mph - N/A   Clear
2:56 AM 48.9 °F - 43.0 °F 80% 30.16 in 10.0 mi NE 6.9 mph - N/A   Clear
3:56 AM 50.0 °F - 43.0 °F 77% 30.15 in 10.0 mi NNE 6.9 mph - N/A   Clear
4:56 AM 48.0 °F - 42.1 °F 80% 30.14 in 10.0 mi NNE 8.1 mph - N/A   Clear
5:56 AM 48.9 °F - 43.0 °F 80% 30.14 in 10.0 mi NNE 6.9 mph - N/A   Clear
6:56 AM 50.0 °F - 44.1 °F 80% 30.14 in 10.0 mi NE 8.1 mph - N/A   Clear
7:56 AM 52.0 °F - 45.0 °F 77% 30.14 in 10.0 mi NNE 8.1 mph - N/A   Mostly Cloudy
8:56 AM 52.0 °F - 44.1 °F 74% 30.15 in 10.0 mi NNE 8.1 mph - N/A   Mostly Cloudy
10:56 AM 55.9 °F - 46.0 °F 69% 30.12 in 10.0 mi North 11.5 mph - N/A   Overcast
12:56 PM 57.9 °F - 46.0 °F 65% 30.05 in 10.0 mi North 11.5 mph - N/A   Clear
1:42 PM 57.2 °F - 46.4 °F 67% 30.02 in 10.0 mi NNW 10.4 mph - N/A   Mostly Cloudy
1:56 PM 57.9 °F - 46.0 °F 65% 30.03 in 10.0 mi NW 12.7 mph - N/A   Overcast
2:56 PM 57.0 °F - 45.0 °F 64% 30.04 in 10.0 mi NW 15.0 mph - N/A   Overcast
6:56 PM 50.0 °F - 44.1 °F 80% 30.08 in 8.0 mi NNW 12.7 mph - N/A   Scattered Clouds
7:13 PM 50.0 °F - 44.6 °F 82% 30.07 in 8.0 mi NNW 9.2 mph - N/A   Mostly Cloudy
7:29 PM 50.0 °F - 42.8 °F 76% 30.06 in 9.0 mi NNW 11.5 mph - N/A   Scattered Clouds
7:56 PM 50.0 °F - 43.0 °F 77% 30.10 in 9.0 mi NNW 15.0 mph 21.9 mph N/A   Mostly Cloudy
8:36 PM 46.4 °F 40.7 °F 42.8 °F 87% 30.09 in 10.0 mi NNW 12.7 mph - N/A   Scattered Clouds
8:56 PM 46.9 °F - 42.1 °F 83% 30.11 in 10.0 mi NNW 15.0 mph 20.7 mph N/A   Scattered Clouds
9:10 PM 46.4 °F 41.5 °F 42.8 °F 87% 30.11 in 10.0 mi NW 10.4 mph 19.6 mph N/A   Mostly Cloudy
9:45 PM 48.2 °F - 41.0 °F 76% 30.12 in 9.0 mi NW 10.4 mph 19.6 mph N/A   Scattered Clouds
9:56 PM 46.9 °F - 41.0 °F 80% 30.13 in 9.0 mi NW 10.4 mph - N/A   Partly Cloudy
10:40 PM 46.4 °F 41.1 °F 39.2 °F 76% 30.13 in 10.0 mi NNW 11.5 mph - N/A   Mostly Cloudy
10:56 PM 46.0 °F 41.4 °F 39.9 °F 79% 30.14 in 10.0 mi NW 9.2 mph - N/A   Mostly Cloudy
11:09 PM 46.4 °F 41.9 °F 39.2 °F 76% 30.13 in 10.0 mi NW 9.2 mph - N/A   Scattered Clouds